Location: Bogis-Bossey
(46.3500°N, 6.1667°E)
Time: 19:11:52
(UTC+00:00)

Cosmos 2369 Rocket - Pass Details

Date: 17 August 2022
Orbit: 827 x 854 km, 71.0° (Epoch: 01 October)

Event Time Altitude Azimuth Distance (km) Brightness Sun altitude
Exits shadow 22:48:19 22° 71° (ENE) 1,731 3.8 -29.4°
Drops below altitude 10° 22:51:02 10° 47° (NE) 2,454 4.9 -29.5°
Sets 22:53:47 0° 36° (NE) 3,397 5.9 -29.6°
